Location: Kuppenheim
(48.8299°N, 8.2568°E)
Time: 07:55:43
(UTC+00:00)

Meteor 1-29 - Pass Details

Date: 20 June 2021
Orbit: 434 x 457 km, 97.7° (Epoch: 26 July)

Event Time Altitude Azimuth Distance (km) Brightness Sun altitude
Rises 01:18:26 0° 20° (NNE) 2,483 8.6 -13.7°
Reaches altitude 10° 01:20:37 10° 30° (NNE) 1,601 7.2 -13.5°
Maximum altitude 01:23:48 35° 98° (E) 747 4.2 -13.3°
Enters shadow 01:26:22 14° 162° (SSE) 1,359 4.9 -13.1°
